FLOCK 2K-06 (42897 NORAD) Tracking and Keplerian Element Data

This shows tracking and keplerian element data for the satellite.

Feedback or suggestion? Click here.




ElementValue
Catalog42897
NameFLOCK 2K-06
Epoch Orbit15247
Epoch Day93.89915526
Epoch Year2020
RAAN326.0026
Inclination96.9042
Eccentricity0.0007745
Argument of Perigee243.6176
Mean Anonmoly116.4277
Mean Motion15.40850594
Decay Rate2.856E-05
L11 42897U 17042CA 20093.89915526 .00002856 00000-0 71450-4 0 9995
L22 42897 96.9042 326.0026 0007745 243.6176 116.4277 15.40850594152471

Live tracking and technical data element details for FLOCK 2K-06 (NORAD 42897). FLOCK 2K-06 can be tracked NOW for your location showing map with azimuth and elevation plus other details from your city location.

Track the satellite on the map from your city or location and see movement details for azimuth, elevation, latitude, longitude, range, height, and movement on the map or in text.







IsCatalogInMostPopularTable: catalog: 42897, numindb: 437
Update: records affected: 1



GetName: 42897 FLOCK 2K-06

Hit Count: updated at: Thu, 09 Apr 2020 17:25:37 GMT